Tracking 19854 objects as of 24-Sep-2019
HD Live streaming from Space Station
objects crossing your sky now

COSMOS 1375 DEB

Track COSMOS 1375 DEB now!
10-day predictions


NORAD ID: 16383
Int'l Code: 1982-055X
Perigee: 963.2 km
Apogee: 1,021.6 km
Inclination: 65.8 °
Period: 104.8 minutes
Semi major axis: 7363 km
RCS: 0.1937 m2 (medium)
Launch date: June 6, 1982
Source: Commonwealth of Independent States (former USSR) (CIS)
Launch site: PLESETSK MISSILE AND SPACE COMPLEX (PKMTR)

Note: This is SATELLITE DEBRIS
aabbcc
Your satellite tracking list
Your tracking list is empty




NASA's NSSDC Master Catalog

Two Line Element Set (TLE):
1 16383U 82055X   19266.46259355 +.00000086 +00000-0 +17557-3 0  9996
2 16383 065.8294 233.1490 0039664 134.6894 312.8117 13.74006188697128
Source of the keplerian elements: AFSPC